Hourly Weather Barmer

Today, 19 April, Monday

Time Temperature Precipitation Wind Pressure Humidity
00:00 +32°C° 0 mm 6 mps 738 mmHg 25%
01:00 +32°C° 0 mm 5 mps 737 mmHg 29%
02:00 +30°C° 0 mm 5 mps 737 mmHg 33%
03:00 +29°C° 0 mm 5 mps 737 mmHg 35%
04:00 +29°C° 0 mm 5 mps 736 mmHg 37%
05:00 +28°C° 0 mm 4 mps 737 mmHg 41%
06:00 +29°C° 0 mm 4 mps 737 mmHg 37%
07:00 +32°C° 0 mm 4 mps 737 mmHg 33%
08:00 +33°C° 0 mm 4 mps 738 mmHg 29%
09:00 +36°C° 0 mm 4 mps 738 mmHg 23%
10:00 +38°C° 0 mm 4 mps 738 mmHg 18%
11:00 +42°C° 0 mm 4 mps 737 mmHg 12%
12:00 +43°C° 0 mm 5 mps 737 mmHg 11%
13:00 +43°C° 0 mm 5 mps 736 mmHg 10%
14:00 +45°C° 0 mm 6 mps 735 mmHg 9%
15:00 +44°C° 0 mm 6 mps 735 mmHg 9%
16:00 +44°C° 0 mm 6 mps 734 mmHg 9%
17:00 +44°C° 0 mm 6 mps 734 mmHg 9%
18:00 +41°C° 0 mm 7 mps 734 mmHg 11%
19:00 +39°C° 0 mm 8 mps 735 mmHg 14%
20:00 +37°C° 0 mm 8 mps 735 mmHg 16%
21:00 +34°C° 0 mm 7 mps 735 mmHg 21%
22:00 +33°C° 0 mm 5 mps 736 mmHg 26%
23:00 +30°C° 0 mm 3 mps 736 mmHg 31%

Tomorrow, 20 April, Tuesday

Time Temperature Precipitation Wind Pressure Humidity
00:00 +29°C° 0 mm 2 mps 735 mmHg 32%
01:00 +29°C° 0 mm 2 mps 735 mmHg 34%
02:00 +28°C° 0 mm 1 mps 734 mmHg 35%
03:00 +28°C° 0 mm 1 mps 734 mmHg 35%
04:00 +27°C° 0 mm 1 mps 734 mmHg 36%
05:00 +27°C° 0 mm 1 mps 734 mmHg 37%
06:00 +28°C° 0 mm 2 mps 735 mmHg 34%
07:00 +30°C° 0 mm 2 mps 735 mmHg 32%
08:00 +31°C° 0 mm 3 mps 736 mmHg 29%
09:00 +34°C° 0 mm 4 mps 736 mmHg 26%
10:00 +35°C° 0 mm 5 mps 736 mmHg 22%
11:00 +38°C° 0 mm 6 mps 736 mmHg 19%
12:00 +39°C° 0 mm 7 mps 736 mmHg 17%
13:00 +40°C° 0 mm 7 mps 735 mmHg 15%
14:00 +41°C° 0 mm 8 mps 734 mmHg 13%
15:00 +41°C° 0 mm 8 mps 734 mmHg 12%
16:00 +41°C° 0 mm 8 mps 733 mmHg 11%
17:00 +41°C° 0 mm 8 mps 733 mmHg 10%
18:00 +36°C° 0 mm 7 mps 734 mmHg 19%
19:00 +32°C° 0 mm 6 mps 734 mmHg 27%
20:00 +28°C° 0 mm 5 mps 735 mmHg 36%
21:00 +27°C° 0 mm 4 mps 735 mmHg 36%
22:00 +26°C° 0 mm 2 mps 736 mmHg 37%
23:00 +25°C° 0 mm 1 mps 736 mmHg 38%

Day after tomorrow, 21 April, Wednesday

Time Temperature Precipitation Wind Pressure Humidity
00:00 +25°C° 0 mm 1 mps 736 mmHg 37%
01:00 +25°C° 0 mm 1 mps 735 mmHg 36%
02:00 +25°C° 0 mm 2 mps 735 mmHg 35%
03:00 +25°C° 0 mm 2 mps 735 mmHg 38%
04:00 +24°C° 0 mm 1 mps 735 mmHg 41%
05:00 +24°C° 0 mm 1 mps 736 mmHg 44%
06:00 +25°C° 0 mm 2 mps 736 mmHg 42%
07:00 +27°C° 0 mm 2 mps 737 mmHg 41%
08:00 +28°C° 0 mm 2 mps 737 mmHg 40%
09:00 +31°C° 0 mm 3 mps 737 mmHg 35%
10:00 +34°C° 0 mm 3 mps 737 mmHg 30%
11:00 +36°C° 0 mm 4 mps 737 mmHg 25%
12:00 +38°C° 0 mm 4 mps 737 mmHg 22%
13:00 +40°C° 0 mm 5 mps 736 mmHg 18%
14:00 +41°C° 0 mm 5 mps 735 mmHg 15%
15:00 +41°C° 0 mm 5 mps 735 mmHg 14%
16:00 +41°C° 0 mm 5 mps 735 mmHg 12%
17:00 +41°C° 0 mm 6 mps 734 mmHg 11%
18:00 +39°C° 0 mm 5 mps 735 mmHg 14%
19:00 +36°C° 0 mm 5 mps 735 mmHg 17%
20:00 +34°C° 0 mm 4 mps 736 mmHg 21%
21:00 +32°C° 0 mm 4 mps 736 mmHg 22%
22:00 +30°C° 0 mm 3 mps 736 mmHg 24%
23:00 +29°C° 0 mm 3 mps 736 mmHg 26%

22 April, Thursday

Time Temperature Precipitation Wind Pressure Humidity
00:00 +29°C° 0 mm 3 mps 736 mmHg 26%
01:00 +28°C° 0 mm 3 mps 736 mmHg 27%
02:00 +27°C° 0 mm 3 mps 736 mmHg 28%
03:00 +27°C° 0 mm 3 mps 736 mmHg 29%
04:00 +27°C° 0 mm 3 mps 736 mmHg 31%
05:00 +26°C° 0 mm 3 mps 736 mmHg 32%
06:00 +28°C° 0 mm 3 mps 737 mmHg 29%
07:00 +30°C° 0 mm 3 mps 737 mmHg 27%
08:00 +31°C° 0 mm 3 mps 738 mmHg 24%
09:00 +35°C° 0 mm 3 mps 738 mmHg 20%
10:00 +37°C° 0 mm 4 mps 738 mmHg 16%
11:00 +41°C° 0 mm 4 mps 738 mmHg 12%
12:00 +42°C° 0 mm 4 mps 737 mmHg 10%
13:00 +42°C° 0 mm 4 mps 737 mmHg 9%
14:00 +43°C° 0 mm 4 mps 736 mmHg 8%
15:00 +43°C° 0 mm 5 mps 736 mmHg 8%
16:00 +43°C° 0 mm 5 mps 735 mmHg 8%
17:00 +43°C° 0 mm 5 mps 735 mmHg 8%
18:00 +41°C° 0 mm 5 mps 735 mmHg 10%
19:00 +38°C° 0 mm 6 mps 736 mmHg 13%
20:00 +35°C° 0 mm 6 mps 736 mmHg 16%
21:00 +33°C° 0 mm 6 mps 736 mmHg 20%
22:00 +32°C° 0 mm 6 mps 736 mmHg 25%
23:00 +30°C° 0 mm 5 mps 736 mmHg 29%

23 April, Friday

Time Temperature Precipitation Wind Pressure Humidity
00:00 +29°C° 0 mm 5 mps 736 mmHg 40%
01:00 +28°C° 0 mm 6 mps 736 mmHg 50%
02:00 +27°C° 0 mm 6 mps 735 mmHg 61%
03:00 +27°C° 0 mm 5 mps 735 mmHg 62%
04:00 +26°C° 0 mm 4 mps 735 mmHg 64%
05:00 +25°C° 0 mm 4 mps 735 mmHg 66%
06:00 +27°C° 0 mm 4 mps 736 mmHg 59%
07:00 +28°C° 0 mm 4 mps 736 mmHg 52%
08:00 +30°C° 0 mm 4 mps 737 mmHg 46%
09:00 +34°C° 0 mm 4 mps 737 mmHg 36%
10:00 +37°C° 0 mm 5 mps 737 mmHg 27%
11:00 +41°C° 0 mm 5 mps 737 mmHg 18%
12:00 +42°C° 0 mm 5 mps 736 mmHg 15%
13:00 +44°C° 0 mm 6 mps 735 mmHg 12%
14:00 +46°C° 0 mm 6 mps 735 mmHg 10%
15:00 +45°C° 0 mm 7 mps 734 mmHg 10%
16:00 +45°C° 0 mm 7 mps 734 mmHg 11%
17:00 +44°C° 0 mm 7 mps 734 mmHg 11%
18:00 +41°C° 0 mm 7 mps 734 mmHg 15%
19:00 +39°C° 0 mm 7 mps 735 mmHg 18%
20:00 +36°C° 0 mm 7 mps 735 mmHg 22%
21:00 +34°C° 0 mm 6 mps 736 mmHg 30%
22:00 +33°C° 0 mm 6 mps 736 mmHg 38%
23:00 +32°C° 0 mm 5 mps 736 mmHg 46%

24 April, Saturday

Time Temperature Precipitation Wind Pressure Humidity
00:00 +30°C° 0 mm 5 mps 736 mmHg 51%
01:00 +29°C° 0 mm 4 mps 735 mmHg 57%
02:00 +28°C° 0 mm 4 mps 735 mmHg 62%
03:00 +27°C° 0 mm 3 mps 735 mmHg 66%
04:00 +26°C° 0 mm 3 mps 735 mmHg 70%
05:00 +25°C° 0 mm 2 mps 735 mmHg 73%
06:00 +27°C° 0 mm 3 mps 736 mmHg 65%
07:00 +29°C° 0 mm 3 mps 737 mmHg 56%
08:00 +30°C° 0 mm 3 mps 737 mmHg 47%
09:00 +34°C° 0 mm 3 mps 737 mmHg 38%
10:00 +37°C° 0 mm 3 mps 737 mmHg 29%
11:00 +40°C° 0 mm 3 mps 737 mmHg 20%
12:00 +42°C° 0 mm 3 mps 737 mmHg 16%
13:00 +43°C° 0 mm 3 mps 736 mmHg 13%
14:00 +45°C° 0 mm 3 mps 735 mmHg 9%
15:00 +45°C° 0 mm 2 mps 735 mmHg 9%
16:00 +45°C° 0 mm 2 mps 735 mmHg 9%
17:00 +45°C° 0 mm 2 mps 735 mmHg 8%
18:00 +42°C° 0 mm 3 mps 735 mmHg 13%
19:00 +38°C° 0 mm 4 mps 735 mmHg 19%
20:00 +35°C° 0 mm 5 mps 736 mmHg 24%
21:00 +35°C° 0 mm 5 mps 736 mmHg 25%
22:00 +34°C° 0 mm 5 mps 736 mmHg 26%
23:00 +33°C° 0 mm 4 mps 736 mmHg 28%
Show more